Regional Weather Roundup
Issued by NWS Pendleton, OR

Home | Current Version | Previous Version | Text Only | Print | Product List | Glossary On
Versions: 1 2 3 4 5 6 7 8 9 10 11 12 13 14 15 16 17 18 19 20 21 22 23 24 25 26 27 28 29 30 31 32 33 34 35 36 37 38 39 40 41 42 43 44 45 46 47 48 49 50
000
ASUS46 KPDT 031725
RWRPDT
PENDLETON REGIONAL WEATHER ROUNDUP
NATIONAL WEATHER SERVICE PENDLETON OREGON
1000 AM PDT FRI JUL 3 2015

NOTE: FAIR INDICATES FEW OR NO CLOUDS BELOW 12,000 FEET WITH NO
SIGNIFICANT WEATHER AND/OR OBSTRUCTIONS TO VISIBILITY.

# INDICATES UNOFFICIAL STATION AND DATA

WAZ520-031810-
EAST SLOPES OF WASHINGTON CASCADES

CITY            SKY/WX      TMP DP  RH  WIND    PRES   REMARKS
#BULLFROG 2SW   N/A         83  48  30  N7      27.57F
#BUMPING DAM    N/A         69  N/A N/A CALM    N/A
#CLE ELUM HS    N/A         82  46  28  W10     29.89F
#CLE ELUM LAKE  N/A         82  50  33  CALM    29.78F
#CLIFFDEL 2NW   N/A         76  45  33  N1      N/A
#GLENWOOD       N/A         78  59  52  CALM    29.82F
#MANASTASH CYN  N/A         81  47  30  N1      29.94F
#NELSON         N/A         83  51  33  CALM    29.82F
#NELSON 3SW     N/A         81  47  30  NE1     29.98F
#NILE           N/A         84  45  26  W7      29.10F
#RONALD 2NW     N/A         78  52  40  SW2     29.87F
#SNOWDEN        N/A         75  38  26  CALM    N/A
#TEANAWAY 4NE   N/A         84  54  36  SW2     N/A
#TROUT LAKE 1NE N/A         78  57  48  E2      29.81F
$$

WAZ521-031810-
SIMCOE HIGHLANDS

CITY            SKY/WX      TMP DP  RH  WIND    PRES   REMARKS
#BICKLETON HS   N/A         84  37  19  S2      N/A
#CENTERVILLE 1SWN/A         83  52  34  W6      29.77F
#GOLDENDALE     N/A         79  51  38  W5      N/A
#GOLDENDALE 5WNWN/A         82  54  38  SW6     29.78F
#GOODNOE HILLS  N/A         87  55  34  W12     N/A
#LYLE 6NE       N/A         79  56  45  S3      29.79F
$$

WAZ026-031810-
KITTITAS VALLEY

CITY            SKY/WX      TMP DP  RH  WIND    PRES   REMARKS
ELLENSBURG AP   SUNNY       89  49  25  NW21G26 29.90F
YTC-OPS AREA    N/A         83  37  19  W22G29  29.95S
#ELLENSBURG CWU N/A         87  47  25  NW17    29.74F
#ELLENSBURG 3NE N/A         84  51  32  N9      29.90F
#KITTITAS 3S    N/A         83  61  48  CALM    29.78F
#THORP 6N       N/A         81  47  30  W14     29.80F
$$

WAZ027-031810-
YAKIMA VALLEY

CITY            SKY/WX      TMP DP  RH  WIND    PRES   REMARKS
SUNNYSIDE AP    SUNNY       82  51  34  CALM    29.86F
YAKIMA AIRPORT  SUNNY       92  47  21  VRB7    29.87F HX 88
#DONALD 2NE     N/A         97  22   7  SE3     28.71F HX 92
#GRANDVIEW      N/A         86  49  28  CALM    29.82F
#MABTON         N/A         84  56  38  NW2     29.85S
#MOXEE 2E       N/A         90  14   6  SW5     29.77F HX 86
#NACHES 2SW     N/A         85  49  29  W9      29.91F
#OUTLOOK DOT    N/A         N/A N/A N/A SW1     N/A
#SELAH 8E       N/A         92  39  16  N3      N/A    HX 88
#TERRACE HTS    N/A         89  46  23  CALM    29.75F
#TOPPENISH      N/A         88  50  27  CALM    29.72F
#WAPATO 4NE     N/A         97  22   7  SE3     28.71F HX 92
#WEST VALLEY    N/A         88  50  27  N3      29.76F
#W YAKIMA       N/A         89  48  24  E3      29.78F
#WHITE SWAN 5E  N/A         87  58  38  S1      29.80F
#WILEY CITY 3W  N/A         90  39  17  E1      29.86F HX 86
$$

WAZ028-031810-
LOWER COLUMBIA BASIN...WASHINGTON

CITY            SKY/WX      TMP DP  RH  WIND    PRES   REMARKS
PASCO           SUNNY       89  55  32  VRB5    29.84F
RICHLAND AWOS   SUNNY       93  45  19  NW3     29.83F HX 89
#BASIN CITY 5SW N/A         86  60  42  CALM    29.85S
#BENTON CITY    N/A         86  49  28  W3      29.71F
#CONNELL 5N     N/A         87  52  30  SW3     29.79S
#CONNELL 5NW    N/A         86  57  37  W1      29.76S
#ELTOPIA 6NW    N/A         84  59  43  SW2     28.84S
#KAHLOTUS       N/A         88  49  26  N7      29.78F
#KENNEWICK      N/A         83  48  30  N7      27.57F
#KENNEWICK 3S   N/A         86  60  42  CALM    29.80S
#PASCO-BROADMOORN/A         91  31  12  S2      29.67S HX 87
#PATERSON       N/A         82  58  44  SE1     29.81F
#PROSSER        N/A         85  42  22  W5      29.79F
#SAGEMOOR 2W    N/A         90  62  39  CALM    29.66S HX 90
#TOUCHET 2S     N/A         89  60  38  CALM    29.80F
#WEST PASCO     N/A         93  59  32  CALM    29.83F HX 92
$$

WAZ029-031810-
FOOTHILLS OF THE BLUES...WASHINGTON

CITY            SKY/WX      TMP DP  RH  WIND    PRES   REMARKS
WALLA WALLA AP  SUNNY       90  47  23  SW9     29.89F HX 87
#DAYTON SCHOOL  N/A         88  47  24  W5      29.91S
#LOWDEN 2SE     N/A         88  59  38  N1      29.81F
#PLEASANT VIEW 1N/A         89  47  24  S7      29.81S
#PRESCOTT       N/A         90  53  28  W1      29.79F HX 88
#SUDBURY        N/A         91  N/A N/A CALM    N/A
#WAITSBURG 5S   N/A         88  49  26  S5      29.87F
#WAITSBURG 8N   N/A         90  30  12  S15     29.74S HX 86
#WALLA WALLA U  N/A         90  52  27  CALM    29.80F HX 87
#WHITMAN MISSIONN/A         90  57  33  CALM    29.82F HX 89
$$

WAZ030-031810-
BLUE MOUNTAINS...WASHINGTON

CITY            SKY/WX      TMP DP  RH  WIND    PRES   REMARKS
#DIXIE 5SE      N/A         82  47  29  S7      29.94S
$$

ORZ009-041-WAZ024-031810-
COLUMBIA RIVER GORGE

CITY            SKY/WX      TMP DP  RH  WIND    PRES   REMARKS
HOOD RIVER AP   SUNNY       82  57  43  CALM    29.89F
THE DALLES AP   SUNNY       86  54  34  MISG    29.85F
#ARLINGTON AIRPON/A         86  53  32  W12     N/A
#ARLINGTON HS   N/A         90  49  25  CALM    29.70F HX 87
#CELILO DOT     N/A         90  62  39  W3      N/A    HX 90
#MOSIER 1S      N/A         82  47  29  W9      29.85F
#MURDOCK        N/A         82  61  49  W12     29.84F
#RUFUS DOT      N/A         83  60  46  W3      N/A

$$

ORZ510-031810-
NORTH CENTRAL OREGON

CITY            SKY/WX      TMP DP  RH  WIND    PRES   REMARKS
#CHENOWITH 1W   N/A         78  54  43  W15     N/A
#COW CYN RST AREN/A         78  N/A N/A SW8     N/A
#DUFUR 9E       N/A         85  41  21  NW1     29.83F
#GRASS VALLEY 1SN/A         85  47  27  SW2     29.83S
#KENT DOT       N/A         84  48  29  NW5     N/A
#MAUPIN SCHOOL  N/A         84  52  33  CALM    29.90F
#MORO SCHOOL    N/A         84  51  32  W6      29.94S
#SHANIKO 5WSW   N/A         79  46  31  SW6     N/A
#SHANIKO 4NW    N/A         78  39  25  W5      30.05S
#TYGH VALLEY 2NEN/A         80  51  36  CALM    29.83F
#WAPANITIA AIRPON/A         84  43  24  CALM    29.82F
#WASCO DOT      N/A         86  59  40  W7      N/A
#WASCO 5NE      N/A         84  53  34  CALM    29.80F
$$

ORZ511-031810-
CENTRAL OREGON

CITY            SKY/WX      TMP DP  RH  WIND    PRES   REMARKS
BEND AIRPORT    N/A         N/A N/A N/A MISG    N/A
MADRAS AIRPORT  SUNNY       81  45  28  CALM    30.01F
PRINEVILLE AP   SUNNY       84  34  17  VRB5    30.03S
REDMOND AIRPORT SUNNY       83  39  21  VRB5    30.02F
#BEND 1SW       N/A         83  46  27  S1      N/A
#BEND-AWBREY    N/A         81  39  22  CALM    29.79F
#BEND-KIM LN    N/A         81  45  28  CALM    30.03S
#CROOKED RVR RANN/A         87  42  21  SE1     29.79F
#CULVER         N/A         81  46  29  CALM    29.96F
#LAKE BILLY CHINN/A         82   4   5  N5      30.02F
#POWELL BUTTE 3EN/A         75  49  40  NW2     N/A
#POWELL BUTTE   N/A         89  48  24  N2      29.67S
#PRINEVILLE 3N  N/A         79  51  38  NW1     29.79F
#WARM SPRINGS   N/A         85  49  29  CALM    29.91F

$$


ORZ509-031810-
EAST SLOPES OF OREGON CASCADES

CITY            SKY/WX      TMP DP  RH  WIND    PRES   REMARKS
#CAMP SHERMAN   N/A         85  44  24  CALM    29.85F
#LA PINE 4NW    N/A         76  51  42  CALM    29.85F
#SISTERS AIRPOR N/A         84  46  27  N3      30.17S
#SISTERS ODOT   N/A         85  N/A N/A CALM    N/A
#SISTERS 3N     N/A         82  43  25  CALM    30.04S
#SUNRIVER       N/A         78  54  43  S1      29.70F
#TUMALO 3W      N/A         83  34  17  NE2     29.68F
#WANOGA BUTTE D N/A         76  25  15  SE6     N/A

$$

ORZ044-031810-
LOWER COLUMBIA BASIN...OREGON

CITY            SKY/WX      TMP DP  RH  WIND    PRES   REMARKS
HERMISTON       SUNNY       88  51  28  NW6     29.86F
#BOARDMAN SCHOOLN/A         84  56  38  NW1     29.85F
#BOARDMAN 8SW   N/A         88  55  33  SW7     29.80F
#ECHO 8SW       N/A         90  49  25  W6      29.86F HX 87
#IONE SCHOOL    N/A         88  44  22  SW12    29.85F
#IRRIGON 4NW    N/A         85  57  39  S6      N/A
#UMATILLA SCHOOLN/A         89  65  45  N6      29.88
#UMATILLA       N/A         87  55  34  NW1     29.77F
$$

ORZ507-031810-
NORTHERN FOOTHILLS OF THE BLUES

CITY            SKY/WX      TMP DP  RH  WIND    PRES   REMARKS
PENDLETON AIRPT SUNNY       91  43  19  W8      29.90F HX 87
#ADAMS 3WNW     N/A         90  48  24  SW5     29.80F HX 87
#ATHENA         N/A         86  49  28  CALM    29.82F
#CAYUSE         N/A         87  50  28  W5      29.79F
#HELIX SCHOOL   N/A         86  48  27  W2      29.80F
#HELIX 3N       N/A         86  46  25  SW8     29.90F
#HELIX 6SW      N/A         85  50  30  SW6     29.91F
#HOLDMAN 6E     N/A         87  47  25  N10     29.62F
#M-F GROVE ELEM N/A         90  43  20  SW3     29.87F HX 86
#M-FREEWATER 5SEN/A         87  54  32  SW2     29.89F
#PENDLETON DNTN N/A         90  50  26  SW2     29.87S HX 87
#PDT AQUATIC CTRN/A         86  51  30  CALM    29.92F
#PDT SUNRIDGE   N/A         89  47  24  CALM    29.90F
#PENDLETON 7NW  N/A         91  58  33  CALM    27.36S HX 90
#PILOT ROCK     N/A         89  49  25  CALM    29.94F
#TUTUILLA       N/A         88  52  29  NE2     29.85F
#UMAPINE 2E     N/A         90  54  30  CALM    29.83F HX 88
#WESTON SCHOOL  N/A         85  45  25  N7      29.81F

$$

ORZ508-031810-
SOUTHERN FOOTHILLS OF THE BLUES

CITY            SKY/WX      TMP DP  RH  WIND    PRES   REMARKS
#AJAX           N/A         84  40  21  S3      29.89F
#CONDON SCHOOL  N/A         84  43  24  SW5     29.95F
#CONDON 5W      N/A         81  33  18  W5      29.99S
#FOSSIL SCHOOL  N/A         87  41  20  NE1     29.93F
#HEPPNER EOC    N/A         88  43  21  W5      29.73F
#HEPPNER 4NE    N/A         84  42  23  NW3     29.79S
#LEXINGTON 2SE  N/A         92  45  20  SW3     29.87F HX 88
#RUGGS 5NE      N/A         87  42  21  W6      30.17S
#RUGGS 2SW      N/A         87  38  18  CALM    29.80F

$$

ORZ502-503-031810-
BLUE MOUNTAINS

CITY            SKY/WX      TMP DP  RH  WIND    PRES   REMARKS
MEACHAM         PTCLDY      83  49  31  VRB5    30.05S
#BATTLE MTN DOT N/A         78  59  52  SE3     N/A
#HEPPNER 15SE   N/A         81  47  30  NW2     29.98F
#LONG CREEK HS  N/A         76  41  28  CALM    30.00F
#N POWDER DOT   N/A         85  58  40  SE6     N/A
#PIKES PEAK     N/A         77  46  33  SW9     27.99S
#TOLLGATE       N/A         80  46  30  CALM    30.04R
#TROY SCHOOL    N/A         84  53  34  CALM    29.65F
#UKIAH          N/A         74  47  38  CALM    29.89F
#WESTON 4E      N/A         83  48  30  SW3     29.74S
$$

ORZ505-031810-
JOHN DAY BASIN

CITY            SKY/WX      TMP DP  RH  WIND    PRES   REMARKS
JOHN DAY        PTCLDY      83  41  23  W3      30.05F
#JOHN DAY KJDY  N/A         84  66  55  NE1     29.99F
#DAYVILLE SCHOOLN/A         81  36  20  CALM    29.96F
#MITCHELL       N/A         89  52  28  CALM    30.15F
#MONUMENT HS    N/A         81  43  26  CALM    29.97F
#MT. VERNON 5SE N/A         80  41  25  W2      30.02F
#WINLOCK        N/A         90  46  22  CALM    30.09F HX 87
$$

ORZ506-031810-
OCHOCO AND JOHN DAY HIGHLANDS

CITY            SKY/WX      TMP DP  RH  WIND    PRES   REMARKS
#BUCK CREEK DOT N/A         82  82  100 N8      N/A
#HORSE RIDGE DO N/A         82  28  14  NW6     N/A
#KEYES SMT DOT  N/A         82  42  24  E2      N/A
#PAULINA SCHOOL N/A         79  43  28  CALM    30.04F
#PINE MTN OBS   N/A         74  28  18  NW1     N/A
#PRAIRIE CITY   N/A         84  50  31  W1      29.81F
#SENECA         N/A         75  N/A N/A NW1     N/A
#SENECA 9NW     N/A         73  48  41  CALM    29.76F
$$

ORZ049-031810-
GRANDE RONDE VALLEY

CITY            SKY/WX      TMP DP  RH  WIND    PRES   REMARKS
LA GRANDE       SUNNY       81  45  28  CALM    29.98F
#COVE           N/A         77  58  52  CALM    30.00F
#ELGIN 3N       N/A         82  49  32  S2      29.96F
#ELGIN 1E       N/A         77  49  37  CALM    N/A
#IMBLER SCHOOL  N/A         65  43  45  NW3     29.95F
#ISLAND CITY 4N N/A         76  58  54  CALM    29.95F
#LADD CYN DOT   N/A         80  53  39  NE1     N/A
#UNION 1S       N/A         77  50  39  CALM    29.74F
$$

ORZ050-031810-
WALLOWA COUNTY

CITY            SKY/WX      TMP DP  RH  WIND    PRES   REMARKS
JOSEPH AIRPORT  N/A         84  41  22  CALM    30.08S
#IMNAHA SCHOOL  N/A         88  43  21  S2      29.91F
#IMNAHA 10S     N/A         76  51  42  SW3     30.01S
#JOSEPH 3N      N/A         79  44  29  CALM    30.07S
#JOSEPH 3W      N/A         83  42  24  E2      29.94S
#LOSTINE        N/A         79  51  38  CALM    29.63F
#MT HOWARD 8000 N/A         65  38  37  NW2     30.35F
#PROMISE 1S     N/A         83  47  28  CALM    29.86F
#WALLOWA SCHOOL N/A         79  49  35  CALM    29.96F



$$



USA.gov is the U.S. government's official web portal to all federal, state and local government web resources and services.